This is the latest recevied weather packets stored in our database for station/object G7GQA-4. If no packets are shown the sender has not sent any weather packets the latest 10 day(s).
| Time | Temp. | Humidity | Pressure | Rain* | Wind** | Luminosity | Snow |
|---|---|---|---|---|---|---|---|
| 1777571120 | 20.56° C | 34% | - | 0 mm | - | 46 W/m² | - |
| 1777570520 | 20.56° C | 33% | - | 0 mm | - | 50 W/m² | - |
| 1777569920 | 21.11° C | 33% | - | 0 mm | - | 53 W/m² | - |
| 1777568720 | 21.67° C | 30% | - | 0 mm | - | 224 W/m² | - |
| 1777567520 | 22.22° C | 30% | - | 0 mm | - | 281 W/m² | - |
| 1777566920 | 22.22° C | 29% | - | 0 mm | - | 310 W/m² | - |
| 1777565720 | 22.22° C | 29% | - | 0 mm | - | 66 W/m² | - |
| 1777563319 | 22.78° C | 28% | - | 0 mm | - | 480 W/m² | - |
| 1777560320 | 22.22° C | 28% | - | 0 mm | - | 597 W/m² | - |
| 1777559720 | 22.22° C | 28% | - | 0 mm | - | 614 W/m² | - |
| 1777557919 | 21.67° C | 28% | - | 0 mm | - | 655 W/m² | - |
| 1777557319 | 22.22° C | 28% | - | 0 mm | - | 667 W/m² | - |
| 1777556719 | 21.67° C | 29% | - | 0 mm | - | 679 W/m² | - |
| 1777554919 | 21.11° C | 30% | - | 0 mm | - | 718 W/m² | - |
| 1777554319 | 21.67° C | 30% | - | 0 mm | - | 726 W/m² | - |
| 1777553719 | 21.67° C | 31% | - | 0 mm | - | 732 W/m² | - |
| 1777552519 | 20.56° C | 30% | - | 0 mm | - | 742 W/m² | - |
| 1777551919 | 21.11° C | 30% | - | 0 mm | - | 742 W/m² | - |
| 1777551320 | 20.56° C | 31% | - | 0 mm | - | 745 W/m² | - |
| 1777550719 | 20.56° C | 31% | - | 0 mm | - | 747 W/m² | - |
| 1777550119 | 20.56° C | 32% | - | 0 mm | - | 750 W/m² | - |
| 1777548919 | 20° C | 34% | - | 0 mm | - | 746 W/m² | - |
| 1777547719 | 19.44° C | 35% | - | 0 mm | - | 739 W/m² | - |
| 1777546519 | 19.44° C | 38% | - | 0 mm | - | 731 W/m² | - |
| 1777545318 | 18.89° C | 40% | - | 0 mm | - | 707 W/m² | - |
* Rain latest hour (hover to see other rain measurements)
** Current wind speed in m/s (hover to see current wind gust speed)